Regional Weather Roundup
Issued by NWS

Home | Current Version | Previous Version | Text Only | Print | Product List | Glossary Off
Versions: 1 2 3 4 5 6 7 8 9 10 11 12 13 14 15 16 17 18 19 20 21 22 23 24 25 26 27 28 29 30 31 32 33 34 35 36 37 38 39 40 41 42 43 44 45 46 47 48 49 50

616
ASUS43 KLOT 200803
RWRIL

ILLINOIS REGIONAL WEATHER ROUNDUP
NATIONAL WEATHER SERVICE CHICAGO/ROMEOVILLE IL
200 AM CST MON FEB 20 2017

NOTE: "FAIR" INDICATES FEW OR NO CLOUDS BELOW 12,000 FEET WITH NO
SIGNIFICANT WEATHER AND/OR OBSTRUCTIONS TO VISIBILITY.

* THESE STATIONS ARE NOT UNDER NWS QUALITY CONTROL. THEY ALSO MAY NOT
  REPORT WEATHER SUCH AS PRECIPITATION OR FOG.

ILZ001-002-007-009-015-016-024-200900-
NORTHWEST ILLINOIS

CITY           SKY/WX    TMP DP  RH WIND       PRES   REMARKS
MOLINE         CLOUDY    52  46  80 E5        30.01R
SAVANNA*       CLOUDY    48  43  82 SE5       30.04R
$$

ILZ003-004-008-010-011-017-018-200900-
NORTH CENTRAL ILLINOIS

CITY           SKY/WX    TMP DP  RH WIND       PRES   REMARKS
ROCKFORD       CLOUDY    50  43  77 SE9       30.08F
FREEPORT*      CLOUDY    39  35  88 SE3       30.08S
ROCHELLE*      CLOUDY    44  41  89 SE8       30.08S
DE KALB*       CLOUDY    47  43  84 SE9       30.10F
PERU*          CLOUDY    48  45  89 SE7       30.09R FOG
$$

ILZ005-006-012>014-019>023-200900-
NORTHEAST ILLINOIS

CITY           SKY/WX    TMP DP  RH WIND       PRES   REMARKS
CHICAGO-OHARE  CLOUDY    45  36  70 SE6       30.11F
CHICAGO-MIDWAY MOCLDY    49  40  71 SE5       30.13S
AURORA         CLOUDY    47  42  83 SE9       30.10F
LANSING*       PTCLDY    42  40  95 CALM      30.14S
JOLIET*        CLOUDY    47  43  88 SE3       30.12S
WAUKEGAN       CLOUDY    36  31  82 E5        30.12S WCI  32
DUPAGE AIRPORT CLOUDY    48  41  76 SE7       30.10S
KANKAKEE*      PTCLDY    40  38  93 CALM      30.13F
WHEELING       PTCLDY    38  29  70 CALM      30.13F
MORRIS*        PTCLDY    47  44  92 CALM      30.09F FOG
ROMEOVILLE*    CLOUDY    44  43  95 SE9       30.11F
NORTHERLY ISL    N/A     41  35  79 SE1         N/A
$$

LMZ740>746-200900-
SOUTHERN LAKE MICHIGAN

STATION/POSITION SKY/WX   TEMP    WIND        PRES    VSBY  WAVE
                          AIR SEA DIR/SP/G                  HT/PER
                          (F)     (DEG/KT/KT) (MB)    (MI)  (FT/S)
HARRISON CRIB              45     160/  9/  9   N/A
BURNHAM HARBOR             40     150/  1/  3   N/A
CALUMET HARBOR             49     170/  4/  5 1019.8R
BURNS HARBOR               52     170/  7/ 11 1021.0S
MICHIGAN CITY              49     120/  7/  7   N/A
$$

ILZ025>027-034>036-040-047-049-050-058-095>099-200900-
WEST-CENTRAL ILLINOIS

CITY           SKY/WX    TMP DP  RH WIND       PRES   REMARKS
QUINCY         PTCLDY    53  49  86 SE7       30.00R
GALESBURG*     PTCLDY    50  47  91 E3          N/A
MACOMB*        CLOUDY    50  48  93 SE8       30.04S FOG
JACKSONVILLE*  CLOUDY    51  49  93 SE8       30.04S FOG
PITTSFIELD*    CLOUDY    52  50  93 SE5       30.04R
$$

ILZ028>032-037-038-041>044-048-051>054-059>061-200900-
CENTRAL ILLINOIS

CITY           SKY/WX    TMP DP  RH WIND       PRES   REMARKS
PONTIAC        CLOUDY    45  44  98 SE8       30.11S FOG
BLOOMINGTON    CLOUDY    45  44  97 S9        30.09F FOG
DECATUR        FOG       49  48  97 SE7       30.10F VSB 1/2
PEORIA         CLOUDY    51  49  92 SE6       30.06S FOG
LACON*         CLOUDY    47  46  96 SE5       30.07R FOG
LINCOLN*       DRZL/FOG  49  49 100 SE9       30.08S VSB 1/2
SPRINGFIELD    CLOUDY    52  50  93 SE12      30.06S FOG
TAYLORVILLE    FOG       49  49 100 SE10      30.08S VSB 1/2
$$

ILZ033-039-045-046-055>057-062-063-200900-
EAST-CENTRAL ILLINOIS

CITY           SKY/WX    TMP DP  RH WIND       PRES   REMARKS
CHAMPAIGN      FOG       49  47  93 S10       30.12S VSB 1/4
RANTOUL*       FOG       48  48  99 S8        30.12S VSB 1/4
MATTOON        FOG       49  49 100 SE9       30.11F VSB 1/4
PARIS*         FOG       44  44 100 SE6       30.14F VSB<1/4
$$

ILZ079-100>102-200900-
SOUTHWEST ILLINOIS

CITY           SKY/WX    TMP DP  RH WIND       PRES   REMARKS
ALTON          CLOUDY    49  49  98 E8        30.06S FOG
BELLEVILLE     FOG       48  48 100 CALM      30.06R VSB 1
CAHOKIA*       CLEAR     52  49  89 S5        30.05S
SPARTA*        CLEAR     51  50  98 SE6       30.08R FOG
$$

ILZ064>066-069>071-074>076-080>082-084>086-088>090-092>094-200900-
SOUTH-CENTRAL ILLINOIS

CITY           SKY/WX    TMP DP  RH WIND       PRES   REMARKS
CARBONDALE     FOG       46  46 100 E5        30.08S VSB 1/4
CAIRO*         FOG       43  43 100 NE5       30.08S VSB 1/4
EFFINGHAM*     FOG       49  49 100 E8        30.12F VSB 1/4
MARION         CLEAR     50  50 100 SE5       30.09S FOG
MT. VERNON     CLOUDY    48  48 100 E5        30.10S FOG
CENTRALIA*     CLOUDY    49  49 100 E6        30.08S FOG
SALEM*         FOG       51  50  95 SE6       30.09F VSB 1/2
METROPOLIS*    LGT RAIN  48  47  99 CALM      30.10S VSB 1/4
$$

ILZ067-068-072-073-078-083-087-091-200900-
SOUTHEAST ILLINOIS

CITY           SKY/WX    TMP DP  RH WIND       PRES   REMARKS
LAWRENCEVILLE  FOG       41  40  96 E5        30.15R VSB<1/4
FLORA*         FOG       47  47  97 E3        30.11F VSB 1/4
FAIRFIELD*     PTCLDY    46  46 100 E3        30.10F FOG
HARRISBURG*    CLEAR     48  48 100 E6        30.10F FOG
ROBINSON*      FOG       42  42 100 E3        30.16S VSB 1/4
CARMI*         FOG       42  42 100 E5        30.11F VSB 1/4
$$

ABBREVIATIONS USED IN REMARKS
   TC - TEMPERATURE IN CELSIUS
  WCI - WIND CHILL INDEX
   HX - HEAT INDEX
  VSB - VISIBILITY
$$





USA.gov is the U.S. government's official web portal to all federal, state and local government web resources and services.